GFSNW_sfc_dewp_021.txt.gz
Dewpoint
50 50 50 50 52 52 52 53 40 57 59 40 43 40 40 35 33 37 37 37 31 33 31 33 33 35 35 36 38 32 32 32 26 28 29 29 29 30 30 26 25 28 26 24
50 50 50 51 52 52 55 48 50 57 57 36 38 41 37 37 33 34 36 35 36 35 36 33 38 39 41 41 38 38 36 30 27 28 32 31 26 27 27 35 30 24 20 21
50 50 50 51 52 52 53 52 42 48 50 48 43 39 36 37 38 38 36 35 37 36 35 36 38 38 42 41 37 41 40 30 28 26 24 24 23 23 22 29 27 27 27 28
50 50 51 51 51 51 52 51 45 42 37 38 41 41 37 36 37 38 38 37 36 35 33 35 37 39 39 41 40 39 36 30 32 30 27 25 24 23 23 22 24 23 25 27
50 50 51 51 51 50 52 50 48 45 41 37 39 40 36 36 35 36 35 35 35 37 36 37 36 37 36 36 35 36 37 32 30 28 31 29 26 27 28 25 27 27 27 29
50 52 51 50 51 52 52 52 51 49 45 39 40 38 38 38 39 40 40 37 39 37 38 39 40 39 37 38 35 36 37 31 29 28 32 31 25 29 27 27 28 28 26 31
52 52 50 50 51 52 57 55 54 46 38 43 40 39 39 39 37 37 42 42 38 40 40 38 38 35 36 39 37 41 34 33 31 24 24 9 30 30 30 30 29 29 33 35
52 51 50 50 50 51 56 55 55 46 36 45 41 38 38 40 43 42 42 42 41 41 43 35 26 30 25 32 36 37 40 33 25 25 25 25 28 32 31 30 29 37 37 37
51 50 50 50 50 51 55 55 56 52 41 40 45 38 41 41 41 42 43 45 46 46 38 30 25 25 27 30 33 37 40 35 28 28 18 14 28 33 34 34 27 40 39 38
51 51 50 50 50 50 56 55 56 55 45 46 46 42 41 45 43 41 43 43 41 46 34 33 30 28 33 29 29 27 31 32 24 23 18 27 34 34 35 25 26 40 40 39
52 51 50 50 50 50 55 53 55 54 46 47 50 50 45 45 46 38 43 39 39 36 35 33 32 29 31 30 33 31 27 27 24 28 26 22 35 33 28 33 41 41 39 39
52 51 50 50 50 50 52 52 54 56 52 50 51 50 50 50 50 46 44 38 44 44 38 34 35 33 35 32 26 35 29 33 30 30 29 34 36 35 39 41 41 39 39 41
51 51 51 50 50 50 52 54 55 55 48 48 48 47 50 50 51 51 44 45 46 46 48 40 39 30 36 28 31 29 33 37 33 33 36 35 39 42 42 41 40 40 41 40
51 51 50 50 50 50 52 54 55 52 47 36 45 47 48 48 50 50 50 49 50 49 44 38 36 31 41 33 33 32 34 36 34 33 36 36 41 41 41 41 41 41 41 39
48 48 48 50 50 50 55 54 54 53 50 38 39 47 47 47 48 48 49 50 48 44 38 35 34 35 36 33 34 33 39 34 33 31 38 38 41 41 43 42 41 39 37 28
47 48 50 50 50 50 55 50 54 51 54 44 37 46 45 46 47 48 48 47 47 47 41 35 41 45 38 34 32 38 38 38 36 38 43 43 42 41 41 41 40 35 28 26
48 49 50 50 49 51 48 46 49 49 52 40 37 39 43 43 46 46 48 48 46 45 41 38 36 39 42 34 32 38 39 36 41 42 41 40 39 39 41 36 31 31 23 23
47 49 50 49 47 48 50 50 49 50 49 44 37 37 36 44 37 38 44 38 43 44 41 39 36 38 36 34 39 39 38 38 40 41 40 40 40 39 32 29 22 23 22 22
48 49 49 50 50 45 49 48 49 53 48 38 34 33 31 42 39 38 37 42 34 41 35 36 39 35 35 38 39 38 37 38 39 39 40 41 40 38 23 23 23 22 23 25
48 49 47 40 43 47 48 48 43 40 40 40 36 38 36 40 36 35 35 34 34 33 34 38 33 34 38 39 38 38 39 39 39 37 37 34 24 24 23 24 25 25 26 27
45 39 36 43 46 46 40 37 37 38 35 39 38 37 36 39 34 34 35 33 33 31 30 33 32 32 35 37 37 38 38 37 34 27 26 25 24 24 26 28 27 26 27 27
43 42 44 42 39 36 36 34 34 34 34 35 35 36 39 37 42 34 34 33 33 29 35 32 29 31 36 37 36 35 26 24 24 24 24 25 27 29 28 27 27 27 28 25
41 37 35 36 32 31 31 30 31 32 33 34 34 33 34 35 37 33 33 32 31 34 31 27 28 34 36 36 28 24 24 25 25 24 28 28 28 29 27 27 28 26 29 29
35 33 30 32 30 31 30 31 32 33 33 33 33 32 33 32 33 32 31 31 32 29 24 21 33 34 33 33 29 24 23 23 22 23 25 24 27 28 27 28 26 24 28 29
33 33 29 30 31 32 32 32 33 33 35 34 33 33 34 32 31 31 30 28 26 28 28 31 34 34 31 30 27 25 25 25 27 27 26 25 26 27 29 29 29 29 27 28
33 32 30 32 32 32 32 32 32 35 33 34 34 31 31 29 30 28 28 27 26 30 32 33 31 30 30 30 29 28 28 26 26 27 27 27 25 24 28 28 29 26 28 26
31 30 34 33 32 31 32 33 33 37 33 32 32 28 27 30 28 27 30 29 30 32 32 32 30 29 29 27 26 26 27 28 28 28 28 28 28 26 28 28 29 30 30 27

GFSNW_sfc_dewp_024.txt.gz
Dewpoint
49 50 50 50 52 52 51 49 37 53 48 31 41 38 40 36 33 35 35 36 35 30 31 35 36 35 36 39 40 29 33 30 25 29 28 29 28 29 29 24 21 26 24 21
49 50 50 51 51 52 51 45 48 55 45 29 33 39 36 36 34 34 34 36 37 37 34 35 39 38 42 38 37 36 32 28 25 27 31 31 26 28 33 31 28 23 18 21
49 49 50 51 51 51 53 49 40 45 48 43 36 40 35 36 38 37 37 35 36 35 35 39 37 38 40 38 35 41 39 31 26 25 26 25 21 23 29 29 25 25 25 25
49 50 51 51 51 51 50 49 42 39 33 35 41 40 36 36 35 37 36 34 35 35 33 37 37 39 39 38 38 36 34 29 31 29 27 26 24 24 24 22 25 24 24 27
49 50 51 51 51 50 49 49 46 43 36 35 37 40 37 35 36 36 35 34 37 37 35 35 36 37 36 34 34 35 37 29 29 23 32 31 24 25 27 27 25 25 30 32
50 51 50 50 51 50 49 51 51 43 42 34 36 38 36 38 38 38 39 39 37 36 38 39 39 38 38 38 34 37 35 29 25 21 31 28 23 27 28 26 28 27 25 31
52 51 50 50 50 52 56 55 51 43 36 39 36 40 38 38 38 39 42 40 36 40 42 35 32 33 36 38 39 38 33 32 27 20 20 4 24 30 29 29 31 34 34 34
51 50 50 49 50 51 54 55 51 42 34 43 40 38 42 42 43 42 43 44 41 42 39 29 24 27 28 32 39 41 37 29 26 16 23 19 26 31 29 27 28 37 35 36
50 50 49 49 50 51 53 53 54 44 39 38 45 40 41 40 40 40 42 45 46 42 34 27 24 22 20 29 32 36 37 31 24 28 11 7 20 33 33 32 27 39 38 37
50 50 50 49 50 51 53 52 54 50 42 45 46 40 40 43 41 39 41 41 40 40 29 31 23 28 31 29 27 25 29 26 24 16 15 24 28 34 34 25 25 40 39 38
50 50 49 49 50 50 51 51 54 49 44 47 49 48 44 45 42 37 41 37 37 37 29 26 33 25 29 29 32 30 28 27 24 23 17 19 33 34 28 32 39 40 39 38
50 50 50 49 50 50 53 47 54 54 48 47 49 49 50 49 46 45 42 35 40 39 35 34 35 27 34 28 27 34 25 28 28 29 28 31 35 34 36 41 40 39 38 40
51 49 49 50 50 50 53 52 53 51 44 45 47 46 49 49 49 49 41 42 46 45 42 37 33 26 33 30 31 31 33 37 33 32 33 35 36 42 42 41 40 40 41 41
49 47 48 49 50 50 52 51 52 48 43 35 43 48 46 48 49 49 48 48 49 45 41 36 34 29 36 30 30 30 31 36 34 32 35 39 41 40 40 40 40 40 41 40
48 49 49 50 49 50 53 52 51 51 44 38 38 46 46 47 48 49 49 48 46 41 37 34 33 31 34 33 31 32 38 33 32 31 34 35 39 41 41 40 40 40 38 26
48 49 50 49 49 51 52 47 51 49 50 40 33 44 43 44 47 48 47 47 46 43 38 35 37 43 35 33 35 38 40 40 38 37 42 42 41 42 42 42 40 37 27 23
48 50 49 48 48 49 47 42 48 48 49 39 36 35 42 43 46 44 45 45 44 44 38 36 38 36 40 33 33 37 38 38 42 42 41 39 40 39 42 40 34 27 23 24
49 50 49 48 49 49 49 49 48 49 45 40 34 32 34 42 36 36 41 37 40 41 41 39 36 36 35 34 39 40 39 39 42 41 40 39 40 40 31 25 23 23 22 24
49 49 49 48 47 45 48 47 47 50 45 36 33 31 30 40 39 37 35 38 34 39 35 35 36 34 33 36 38 39 40 39 40 40 40 40 38 26 23 23 24 23 25 25
48 47 44 40 42 46 47 45 41 39 40 38 33 37 33 39 34 34 34 34 33 33 35 38 33 34 37 38 39 38 39 39 40 40 39 33 26 25 25 25 26 25 25 26
45 40 37 42 45 43 39 37 36 37 35 38 36 36 36 37 34 34 33 33 33 30 28 30 29 30 34 37 38 37 39 34 32 33 29 27 27 27 29 28 27 26 25 25
43 43 44 41 38 36 36 34 34 34 34 34 34 35 39 36 39 34 34 32 32 28 33 32 29 31 36 31 26 25 25 25 25 27 28 29 28 29 28 27 27 26 27 24
42 38 35 37 33 32 33 31 31 32 33 34 34 34 34 35 37 33 33 31 30 33 32 29 30 36 30 24 23 23 24 27 27 26 28 29 28 27 25 25 26 25 27 28
35 34 30 32 30 30 30 31 32 33 33 33 33 32 33 32 33 32 31 31 31 29 24 21 33 37 35 27 26 22 22 24 23 24 25 25 26 27 25 24 24 22 26 28
33 30 28 28 30 31 32 32 33 33 34 33 33 32 33 31 30 31 29 27 25 27 26 31 33 33 30 28 26 25 26 27 27 26 25 24 24 25 27 27 28 29 25 25
32 31 29 31 30 31 32 32 32 34 33 33 33 31 31 28 29 27 27 26 24 28 31 33 31 29 29 29 29 29 28 26 26 26 26 26 24 22 26 27 27 25 24 25
30 30 33 32 32 31 33 33 33 36 34 31 31 25 24 29 25 26 30 27 30 32 32 32 30 30 29 27 27 28 28 28 28 28 28 27 28 25 26 26 28 28 29 26

GFSNW_sfc_dewp_027.txt.gz
Dewpoint
50 50 49 50 52 52 51 46 34 51 43 30 39 37 41 38 32 35 35 35 33 30 33 35 34 34 35 39 38 27 33 29 26 27 28 30 28 28 26 20 19 25 23 20
50 49 49 51 52 51 50 43 49 54 39 27 32 36 38 36 33 33 34 34 37 37 36 34 37 37 40 36 36 32 30 27 25 25 29 28 27 28 32 29 27 23 17 19
49 49 49 51 51 52 52 46 40 44 47 38 32 35 35 35 37 36 36 34 36 35 36 39 37 37 40 37 33 40 36 31 25 23 24 27 20 23 30 27 24 24 23 22
49 49 50 51 51 51 50 47 39 39 35 38 41 38 36 34 34 36 35 33 35 34 33 36 37 38 38 35 38 35 32 27 30 28 28 25 22 22 25 24 25 22 23 26
49 49 51 51 51 51 48 47 43 42 34 35 37 39 37 34 35 35 34 33 38 36 33 34 36 36 34 29 34 35 36 28 26 25 31 30 23 23 23 23 25 27 26 30
50 50 50 51 50 50 47 48 49 41 39 35 35 37 37 36 37 40 40 38 36 34 37 39 39 39 38 36 34 36 32 28 22 16 28 23 16 21 27 26 27 26 27 30
51 50 50 50 50 51 54 53 47 41 35 32 32 39 38 38 37 38 40 38 36 38 39 34 32 32 37 40 40 37 31 29 23 17 19 5 19 28 29 26 29 32 34 35
50 49 49 50 50 51 55 54 47 40 34 40 39 40 41 41 42 41 42 43 40 40 32 27 23 25 25 30 38 37 35 28 25 17 19 17 20 30 29 27 26 35 34 35
49 49 49 49 50 52 54 53 50 43 41 39 43 41 40 38 38 38 41 45 45 39 30 26 19 16 18 27 32 37 33 28 22 25 9 5 17 31 33 30 25 37 36 36
50 49 49 49 50 52 51 52 52 46 42 44 45 39 39 41 39 38 40 40 39 36 27 22 22 25 27 26 25 26 28 24 21 16 13 21 25 33 33 22 21 38 37 37
50 49 49 49 50 51 51 51 52 47 43 46 48 47 43 43 41 36 39 37 36 32 27 25 27 22 29 28 30 30 29 28 27 26 18 19 31 32 28 31 35 39 39 38
50 49 50 49 50 51 50 50 54 52 47 46 48 48 48 48 42 43 40 37 37 37 32 29 31 26 33 27 24 32 26 27 27 28 28 30 32 34 35 38 39 39 39 39
47 47 48 50 50 51 52 52 51 47 43 45 45 45 48 48 49 48 39 40 43 41 39 37 32 24 31 29 30 29 32 34 30 30 30 33 33 37 40 40 39 39 40 40
47 48 49 49 50 51 51 51 50 45 41 35 42 47 46 48 49 50 46 46 45 42 39 34 33 25 34 28 30 31 32 35 32 31 33 37 39 40 40 40 40 40 41 40
48 49 49 49 50 51 51 50 49 49 41 37 37 45 46 45 49 49 48 46 44 40 36 33 32 31 33 34 30 32 36 33 30 30 34 35 34 40 40 39 39 40 37 27
49 49 48 48 50 51 47 43 49 50 47 39 34 42 43 44 47 48 48 47 44 41 38 34 36 40 34 33 34 37 38 39 35 34 36 37 39 40 40 40 41 35 25 22
49 49 48 48 48 48 44 37 46 48 46 38 36 35 41 43 44 42 44 43 43 42 39 35 36 35 39 34 33 35 38 38 39 41 41 38 39 39 42 40 31 28 23 24
49 49 48 48 48 49 47 48 47 47 42 38 32 31 34 41 37 37 41 37 40 39 38 38 37 35 34 33 37 39 39 39 41 41 40 40 41 41 35 24 22 23 24 25
50 48 48 47 46 46 47 47 47 47 43 35 32 29 29 39 38 36 35 38 34 39 34 35 35 33 34 37 37 38 39 39 39 40 39 39 37 27 23 24 25 24 25 25
46 46 42 36 43 46 46 43 39 37 40 37 32 36 33 39 34 34 33 34 33 33 32 38 33 34 36 36 37 39 39 39 40 38 37 27 26 28 29 29 26 26 26 27
43 38 37 43 45 42 38 36 34 37 36 38 36 35 36 38 34 33 32 33 32 30 28 33 30 30 32 31 28 32 32 34 31 32 31 32 34 34 31 28 28 27 26 25
42 41 42 39 36 34 34 32 34 34 33 34 35 35 38 36 36 34 34 30 31 27 33 32 27 30 27 25 26 29 32 34 34 35 35 35 33 30 29 29 28 27 27 24
42 38 36 37 34 33 33 32 31 32 32 34 33 33 33 35 36 33 33 32 30 32 31 30 31 28 30 31 32 33 35 35 35 35 34 33 30 28 26 25 25 26 27 27
36 34 31 32 29 30 30 31 32 32 32 33 33 32 33 32 33 32 31 31 31 29 25 21 32 35 36 28 27 22 24 26 25 25 25 25 27 27 26 25 25 23 26 27
32 32 27 28 30 31 32 32 32 32 34 33 33 32 33 31 31 31 29 27 25 25 21 29 32 32 30 27 28 29 27 26 26 25 25 24 24 25 25 26 26 27 23 23
32 31 29 31 31 31 32 32 32 34 33 33 33 31 30 28 29 23 21 23 19 23 30 32 31 30 31 33 33 28 27 27 27 27 27 27 25 24 27 27 26 23 22 23
30 30 33 31 31 31 32 33 33 35 33 31 30 23 24 29 26 26 29 26 29 32 32 32 31 30 29 29 29 29 28 28 27 27 27 27 27 25 25 25 27 27 28 24

GFSNW_sfc_dewp_030.txt.gz
Dewpoint
52 50 50 50 50 52 51 40 34 52 40 32 37 36 40 41 31 34 35 33 30 29 32 33 32 32 34 38 37 27 32 28 26 27 28 31 28 26 24 19 17 24 23 20
50 50 49 50 51 52 49 46 48 53 37 29 32 34 38 36 31 34 33 34 35 37 36 32 36 36 38 35 34 30 29 27 25 23 24 27 26 29 29 26 26 23 17 17
49 49 49 50 51 52 49 45 41 44 43 37 31 30 35 33 36 35 35 35 36 36 36 38 36 36 38 35 33 40 35 29 25 22 21 25 21 27 28 25 22 22 22 20
49 49 49 51 51 51 50 44 39 41 37 39 32 34 34 33 32 35 34 33 34 34 33 35 35 37 36 33 38 36 30 26 27 28 29 25 21 21 28 24 23 21 21 24
49 49 50 51 51 51 48 47 40 37 35 41 37 37 35 33 34 35 33 32 37 35 33 32 34 36 33 27 34 34 34 27 23 28 30 28 24 23 23 24 23 26 25 24
49 50 50 51 51 50 46 48 47 39 37 36 36 37 37 36 37 39 38 36 35 33 36 38 39 38 38 34 33 34 30 27 23 19 26 21 16 22 23 24 27 24 23 26
50 50 50 50 50 50 50 50 47 40 32 32 37 38 38 37 36 37 40 38 35 37 38 35 32 33 38 39 39 35 29 26 21 16 18 6 17 26 27 26 27 27 30 32
50 50 50 50 50 51 53 52 45 40 32 34 35 39 41 41 41 40 41 42 40 38 29 29 27 26 27 30 37 33 32 26 23 15 17 15 14 25 28 27 24 32 31 34
49 49 49 50 50 51 54 52 47 44 39 38 40 40 40 37 37 37 40 44 41 35 29 25 21 21 23 24 32 36 30 27 22 20 9 4 16 25 31 29 25 32 34 34
49 49 49 50 50 51 53 51 50 46 42 44 42 39 39 39 38 37 39 39 37 35 26 21 21 21 24 23 23 26 27 24 19 16 12 19 22 30 31 22 23 36 36 36
49 49 49 50 51 51 54 52 51 46 43 45 47 46 42 41 39 36 39 36 36 31 27 25 25 21 28 28 28 31 29 29 28 23 15 18 28 32 27 30 32 37 37 36
48 48 49 50 51 51 52 52 52 50 47 46 48 47 47 46 41 42 39 37 37 36 30 25 29 28 31 26 23 32 26 27 26 26 27 29 30 34 34 34 34 37 37 38
49 49 49 50 51 50 52 51 48 47 43 44 45 45 48 47 48 46 39 38 41 38 37 32 31 23 29 25 28 28 32 31 28 28 28 31 32 33 38 37 38 39 39 39
49 49 49 50 50 50 51 49 48 43 41 35 40 47 45 47 49 49 45 44 42 40 37 33 30 25 32 26 28 29 32 33 30 30 32 33 35 38 36 39 39 39 40 40
49 49 50 50 50 50 50 49 48 47 38 37 37 44 44 46 49 47 46 44 42 39 35 33 31 28 31 33 30 31 34 32 29 28 30 32 32 37 40 39 39 40 38 34
47 47 49 49 48 49 43 41 48 49 45 40 34 41 42 44 45 46 46 46 42 40 38 34 35 38 34 33 33 35 36 37 33 32 35 35 37 39 39 39 39 36 30 26
48 48 48 48 48 48 40 36 45 47 44 38 36 35 39 41 43 41 42 43 41 41 39 34 34 36 37 32 31 34 36 37 38 39 39 37 38 38 41 39 29 26 24 25
48 48 48 48 48 48 46 47 47 47 40 37 32 31 33 41 37 37 41 37 40 40 39 38 35 36 34 33 36 38 39 40 39 40 39 38 39 39 27 25 23 24 27 28
48 47 47 47 46 45 46 46 46 45 41 34 30 29 29 39 38 36 37 38 35 38 34 36 35 33 33 35 35 36 37 38 38 39 39 34 30 24 24 28 31 31 30 27
46 46 43 38 43 46 45 43 38 37 37 39 33 34 33 39 34 34 33 34 33 33 33 38 33 33 34 28 28 31 35 38 39 36 29 27 30 33 34 34 34 31 27 28
44 39 38 43 44 42 36 33 32 36 32 36 36 35 35 38 34 34 31 33 32 30 27 33 30 30 31 28 33 34 35 35 35 35 35 35 36 34 32 31 31 31 29 26
42 41 41 38 36 35 32 31 34 34 31 34 34 35 38 36 35 34 34 30 31 26 32 32 27 27 26 32 34 36 36 36 35 35 34 35 34 34 34 33 30 28 27 26
41 36 33 34 32 33 32 31 32 32 32 33 33 33 33 35 36 33 33 31 30 32 30 29 31 30 35 36 35 34 36 36 36 35 35 35 34 31 27 25 25 26 26 27
36 34 33 32 30 30 30 32 32 32 32 33 33 32 33 32 33 32 31 31 31 29 25 21 31 34 35 26 27 25 26 26 26 25 25 26 28 27 26 25 25 23 26 27
32 32 27 27 30 31 32 32 32 32 34 33 33 33 34 32 31 30 29 26 21 22 20 29 31 32 29 31 33 29 25 24 25 25 25 23 23 24 25 26 26 27 22 22
32 31 29 31 31 31 32 32 32 34 33 33 33 31 28 26 29 25 23 21 16 22 29 32 32 32 32 33 34 29 29 28 27 27 27 26 23 22 26 26 25 21 21 21
30 30 32 31 32 31 32 32 32 35 33 31 28 23 22 26 23 22 26 20 27 31 31 31 31 30 31 33 30 29 28 27 27 27 27 27 27 24 25 26 28 28 27 22

GFSNW_sfc_dewp_033.txt.gz
Dewpoint
50 50 51 50 49 51 51 43 37 54 45 35 37 34 34 41 35 36 36 33 32 31 33 33 32 32 33 38 38 31 32 31 29 27 28 31 28 28 27 25 19 26 25 20
50 51 50 49 50 52 49 41 49 54 41 33 35 35 38 37 34 36 35 36 37 38 37 34 36 37 39 38 34 34 33 31 28 25 25 28 28 29 26 27 28 25 31 19
51 50 49 49 51 52 50 47 43 46 41 38 34 35 34 35 38 37 36 36 38 38 37 38 37 37 38 38 35 40 37 30 29 26 23 26 26 29 26 27 27 23 25 20
50 49 49 49 50 52 50 44 42 44 37 36 33 33 36 34 34 37 36 36 36 36 35 36 36 37 35 34 39 37 33 29 28 28 28 26 21 25 28 24 25 25 22 23
49 49 49 49 50 52 50 44 40 38 38 40 35 37 36 34 36 37 35 35 38 37 35 35 36 37 34 28 35 35 34 30 27 28 29 27 25 24 24 27 25 25 25 24
49 49 49 50 51 50 48 50 45 39 37 38 34 35 37 35 39 41 39 37 37 35 38 39 39 39 39 36 35 34 31 31 27 24 25 21 24 25 25 24 26 27 24 26
48 49 49 50 51 50 50 50 45 38 33 37 33 37 39 37 38 38 40 39 37 39 41 37 36 36 38 38 36 34 30 27 25 26 22 17 21 27 26 26 26 26 27 30
48 50 50 50 50 51 53 52 45 39 34 34 36 40 41 41 42 41 41 43 40 40 34 35 31 31 32 33 34 31 31 28 25 27 20 17 14 21 27 28 23 28 28 32
50 49 50 50 50 51 53 52 49 43 37 35 39 41 40 39 39 39 42 43 41 36 32 32 29 29 28 25 32 35 30 29 31 24 22 18 20 21 32 30 28 29 32 35
49 49 50 50 50 51 53 52 50 47 43 46 43 40 40 41 39 39 40 39 40 37 32 32 30 28 25 24 25 31 33 31 30 21 26 24 24 25 32 26 28 34 36 36
49 49 49 49 50 51 53 52 52 48 44 47 48 47 41 41 41 39 41 39 39 35 34 35 30 32 30 28 28 32 31 31 30 25 25 24 28 32 32 34 34 35 37 38
48 49 50 49 49 51 52 52 53 50 47 47 49 48 49 49 43 42 41 40 39 39 35 32 31 32 32 29 29 32 29 31 30 28 30 32 30 36 35 35 35 36 39 38
49 49 50 50 50 50 52 52 50 48 45 45 46 46 48 48 48 48 41 40 42 38 38 35 34 32 33 32 31 32 32 32 32 31 30 31 33 34 35 36 38 38 40 40
49 49 50 50 50 51 51 50 49 45 43 37 43 46 45 47 50 50 46 43 42 40 38 35 34 34 33 32 32 33 33 33 32 32 33 33 33 36 38 37 40 40 40 41
50 49 49 50 50 50 51 50 49 47 41 38 40 44 44 46 48 46 45 43 43 41 38 35 36 33 35 35 34 33 34 33 34 33 32 33 34 36 40 40 40 40 40 36
48 49 50 50 50 49 46 43 48 47 45 42 37 42 42 43 45 45 45 45 43 41 40 35 37 39 36 34 33 35 36 37 35 35 37 36 38 39 40 40 40 37 33 29
48 48 49 49 49 49 40 37 45 46 44 39 36 37 40 41 43 43 43 44 42 42 39 36 37 39 37 34 34 37 38 39 40 40 40 39 39 40 39 32 27 27 26 29
48 48 48 48 48 48 47 47 46 46 39 38 33 34 36 41 39 37 41 39 41 41 39 38 36 38 37 34 33 32 35 37 39 40 41 40 34 27 25 26 29 32 33 33
47 47 47 47 46 44 46 46 46 45 41 34 31 32 33 41 38 37 38 39 36 39 35 37 38 35 32 27 28 30 32 35 37 32 27 27 30 31 32 32 32 31 31 31
46 46 43 38 43 45 45 42 39 38 37 39 33 36 35 39 36 35 35 35 35 35 35 38 34 33 27 32 34 35 35 35 36 35 31 34 33 32 33 34 34 33 33 34
44 41 39 44 44 43 37 35 34 35 32 37 36 36 35 38 36 34 34 34 34 32 32 34 31 30 26 34 35 36 36 36 35 35 35 35 34 34 33 34 34 34 34 32
43 43 43 41 38 35 35 33 34 32 32 34 35 35 38 36 37 35 34 31 31 28 32 32 28 25 32 35 35 37 37 36 36 37 35 35 35 35 35 35 34 32 30 29
41 38 35 37 34 32 26 30 31 32 33 34 34 34 34 36 36 34 34 32 31 34 31 29 30 30 35 34 34 34 35 35 35 34 35 35 34 32 30 28 28 29 28 28
34 32 29 28 31 31 31 32 33 32 33 33 34 33 34 33 33 32 32 32 33 29 27 25 31 34 28 26 27 25 25 26 26 26 26 26 27 27 27 27 27 27 28 28
33 32 27 28 30 32 32 32 33 32 34 33 34 34 34 32 31 31 30 27 24 25 23 29 31 31 28 33 30 27 27 26 27 27 27 26 25 26 27 28 28 27 26 26
33 31 29 31 31 32 32 32 32 34 33 33 34 32 30 28 29 25 25 25 21 26 31 32 32 31 33 34 35 30 30 28 27 27 27 27 26 26 27 27 28 26 26 25
32 30 33 32 32 32 32 32 32 35 33 31 29 25 25 28 25 25 27 24 27 32 32 34 34 34 34 34 34 29 28 28 28 29 29 28 28 27 26 24 24 25 25 25

GFSNW_sfc_dewp_036.txt.gz
Dewpoint
49 49 52 51 51 51 50 47 39 58 56 46 46 35 31 38 33 38 30 28 26 27 29 29 25 26 28 36 33 30 33 32 31 27 29 30 29 28 26 22 19 28 27 13
47 48 50 51 50 51 49 42 47 55 50 41 41 36 33 38 31 33 33 31 31 34 32 30 32 34 37 37 34 34 33 31 29 27 28 29 28 29 26 27 29 24 30 14
49 48 49 50 50 51 49 42 45 52 47 39 37 34 32 33 36 35 35 36 38 37 35 37 36 36 36 36 35 40 36 32 28 25 23 26 28 28 27 25 25 19 22 12
49 49 51 50 50 51 52 44 42 44 42 37 37 34 31 32 34 35 36 36 34 34 36 35 36 37 33 35 39 38 35 30 29 27 26 25 23 24 26 22 22 24 17 15
47 49 50 50 50 51 55 43 42 42 40 37 35 36 33 31 35 35 33 35 37 37 35 33 36 36 33 33 36 36 34 32 31 29 28 27 25 24 22 25 23 24 22 21
47 50 49 49 50 51 49 53 45 40 40 36 35 33 34 32 40 40 38 38 38 38 38 40 40 40 37 34 36 36 35 35 30 23 25 24 32 28 24 23 27 27 25 25
50 49 49 49 50 51 50 52 44 44 39 36 29 33 37 36 38 39 39 39 39 41 41 40 39 38 37 36 36 34 34 32 33 31 28 29 15 22 23 25 24 23 24 22
49 48 48 49 49 51 56 53 47 44 41 37 33 36 40 41 42 42 41 42 41 42 38 39 36 38 41 37 35 32 31 32 32 36 22 18 12 17 19 22 16 22 22 23
48 48 48 49 50 51 57 56 52 47 45 41 32 39 42 41 42 42 42 41 41 37 40 41 38 34 31 31 33 34 30 33 35 31 34 33 22 26 31 30 23 25 30 30
48 48 49 49 50 51 57 55 55 48 49 41 44 38 42 43 42 42 41 40 41 39 43 44 40 35 28 28 31 34 37 37 37 33 36 28 23 23 32 24 24 31 34 35
49 49 49 49 50 51 56 55 55 52 50 48 48 45 44 42 44 44 42 40 42 43 45 44 39 41 32 29 27 31 33 36 37 33 35 30 27 32 31 34 35 33 36 37
49 49 49 49 50 51 53 54 55 53 50 49 50 50 50 48 45 45 44 43 41 42 43 43 42 39 37 35 33 33 31 33 34 31 31 30 31 35 35 37 37 37 38 37
48 49 49 49 50 51 53 54 55 53 52 48 49 47 49 50 51 51 44 46 43 42 44 44 44 38 39 37 35 34 33 33 34 32 28 30 31 32 33 34 36 36 36 37
48 49 49 49 50 51 52 52 53 54 50 42 47 48 48 49 51 50 48 46 45 43 44 47 42 42 37 39 35 36 34 34 32 33 31 30 30 32 36 38 40 39 39 40
49 49 49 49 50 50 52 51 51 51 48 44 48 47 47 48 47 46 46 45 44 45 46 42 44 40 41 40 39 38 33 33 36 35 34 35 35 38 40 40 40 41 41 39
49 49 49 49 49 49 52 47 50 48 50 50 44 46 45 47 48 47 47 47 46 45 45 41 40 39 42 39 38 38 38 39 40 38 40 41 41 41 41 40 38 38 36 34
48 49 49 49 50 53 44 42 48 47 48 49 42 45 44 45 46 45 46 47 46 46 44 40 42 42 41 39 39 35 35 36 39 40 41 40 38 36 33 32 32 34 33 34
48 48 48 48 48 49 50 48 46 47 43 46 42 41 46 45 44 43 44 45 46 44 41 42 41 40 42 38 32 33 35 37 39 35 39 37 33 31 32 33 34 32 31 32
47 47 47 51 49 51 50 46 46 49 46 43 38 41 38 42 40 41 43 44 39 42 39 40 42 37 34 29 31 34 36 36 37 34 35 35 33 32 31 32 34 33 34 35
47 50 48 46 48 45 46 45 46 46 45 42 36 39 37 40 41 39 40 41 38 37 38 40 38 30 30 34 35 35 36 36 34 35 34 33 33 34 35 36 35 34 33 33
50 48 44 49 45 46 44 41 40 41 39 40 38 40 38 40 38 37 39 37 38 35 36 38 35 30 29 35 35 35 35 35 35 35 34 35 34 35 35 35 35 35 35 33
47 47 46 45 42 42 37 35 37 38 36 38 38 38 39 39 41 38 37 35 35 31 35 35 31 29 35 35 36 36 35 35 34 34 33 33 33 34 34 32 30 29 30 33
47 44 40 42 38 36 36 33 35 34 35 36 36 35 40 39 40 37 36 33 33 35 33 31 30 33 34 35 33 32 33 33 32 30 31 30 29 28 29 30 29 34 29 30
38 37 34 35 34 35 35 36 36 34 34 36 38 36 37 37 36 35 34 33 35 31 29 29 31 35 33 31 31 29 27 30 27 26 28 28 28 28 32 33 32 33 30 30
35 37 31 31 32 33 33 33 34 34 35 36 37 36 38 34 33 34 34 31 30 30 30 31 33 33 32 29 27 28 28 31 30 27 29 32 31 31 30 31 28 28 29 28
35 34 32 33 33 32 33 33 32 35 35 36 36 34 34 32 34 32 31 31 28 29 31 33 32 34 35 32 32 33 29 28 29 30 30 30 30 30 28 28 25 26 26 25
33 33 34 34 33 32 32 33 33 35 34 33 36 32 30 33 31 29 31 31 32 33 33 33 34 34 35 34 35 32 31 30 30 29 28 27 25 24 22 19 17 19 20 23

GFSNW_sfc_dewp_042.txt.gz
Dewpoint
48 47 50 50 51 52 51 47 40 52 55 44 38 39 37 37 35 30 28 26 22 21 22 20 17 17 19 23 26 26 27 28 31 26 25 25 24 25 24 35 25 31 35 24
47 47 48 50 51 52 50 44 45 55 53 37 37 37 37 36 34 32 29 28 25 23 23 22 22 22 38 36 27 27 30 29 29 22 24 26 24 21 20 25 34 29 34 25
46 46 48 49 49 52 51 46 43 50 51 40 34 37 35 35 36 29 30 29 25 25 26 27 26 24 36 38 34 41 40 28 24 25 19 23 26 25 21 24 36 31 28 19
46 47 48 49 49 51 51 49 41 46 42 43 36 40 35 34 32 30 30 28 24 26 27 26 25 26 36 36 38 34 34 26 23 19 20 22 25 24 22 21 24 28 27 20
46 47 48 48 49 51 48 46 43 45 40 42 38 38 38 33 30 29 31 29 27 28 27 25 25 28 35 32 37 35 35 32 32 30 27 25 24 23 20 20 20 18 19 20
44 47 48 47 48 49 47 47 48 44 42 41 36 39 38 37 34 33 30 31 31 32 32 35 39 38 38 34 37 37 35 38 36 34 28 25 29 27 23 21 21 22 23 25
45 47 48 48 48 48 48 45 51 48 40 37 36 39 40 39 34 38 34 36 35 40 42 41 40 38 37 38 38 37 38 39 41 37 32 28 22 19 16 17 15 15 16 19
46 47 47 47 47 48 46 49 52 51 43 36 36 38 40 40 38 42 38 42 42 44 44 42 39 41 39 37 33 33 36 40 38 36 30 25 22 18 19 20 19 21 20 21
46 46 47 47 47 47 47 46 49 51 47 40 38 39 40 37 43 45 43 45 48 46 47 47 38 36 31 31 31 29 30 39 41 36 35 29 29 24 24 23 29 27 26 28
46 46 46 47 47 47 46 47 49 49 50 43 41 36 38 43 47 47 43 42 44 46 49 41 44 39 29 33 35 36 38 41 37 35 37 35 27 25 27 29 33 33 32 32
46 46 46 46 46 46 47 48 52 50 50 44 44 42 39 43 45 45 45 44 44 49 46 47 45 43 41 36 31 37 37 39 37 40 35 32 26 25 28 37 37 35 35 36
45 45 46 47 47 47 49 48 52 54 53 51 54 52 51 49 51 48 48 45 44 45 45 48 50 40 40 42 37 30 35 36 39 37 37 35 30 31 33 36 36 38 38 37
46 45 46 48 49 49 50 50 53 57 52 50 50 48 50 51 53 56 47 53 44 46 51 49 50 40 47 39 43 40 32 34 38 35 27 28 29 32 38 38 40 38 38 39
47 46 48 48 49 50 50 49 54 59 51 45 48 49 48 50 51 51 53 52 53 53 53 54 43 42 43 47 41 42 36 34 30 32 31 31 36 40 41 40 41 40 40 38
48 48 48 49 49 50 51 53 56 58 51 46 48 48 48 48 49 48 50 52 51 51 49 42 48 46 47 47 46 45 34 34 41 41 38 40 40 38 38 37 36 36 37 34
48 48 48 49 49 50 53 51 53 56 53 50 45 49 47 47 47 47 48 49 50 48 49 49 45 43 48 42 43 38 38 38 39 40 40 41 38 36 36 35 35 36 36 36
48 48 49 50 49 54 51 49 50 48 55 51 44 45 47 48 47 48 48 50 49 48 48 47 46 44 45 42 43 37 36 37 39 38 40 37 36 36 36 36 35 35 34 34
48 49 49 48 47 48 50 52 47 48 49 51 42 39 47 48 49 46 48 50 49 46 44 45 45 44 48 44 37 36 36 37 36 36 37 36 36 34 34 34 33 33 33 33
48 48 48 51 54 53 49 47 47 54 50 46 38 40 38 45 44 45 47 47 42 45 42 43 43 41 39 37 36 36 37 37 36 35 35 34 34 33 33 33 33 33 34 33
48 49 48 47 52 46 49 48 48 50 48 45 41 44 42 43 45 42 42 43 41 39 40 42 41 35 34 35 36 36 37 37 36 34 33 34 33 32 31 31 33 32 32 30
52 51 47 50 47 48 47 44 44 43 41 40 42 43 42 44 40 38 43 38 41 36 38 38 36 34 33 34 35 36 36 37 36 35 34 34 33 33 33 32 31 31 31 31
49 49 50 49 46 45 38 36 40 40 37 39 39 41 40 43 43 40 41 35 38 34 39 37 34 33 34 34 34 34 35 34 34 33 32 33 31 31 29 29 30 32 33 31
50 47 41 44 40 36 36 33 35 34 36 37 39 36 41 41 41 39 36 34 36 39 35 32 33 34 34 34 33 32 33 33 33 31 29 29 31 32 32 31 33 33 31 30
43 39 34 36 33 34 34 34 34 34 35 38 39 37 39 39 36 37 34 35 34 32 31 32 33 34 35 34 33 31 29 31 29 28 29 31 31 31 31 30 30 27 25 25
37 38 32 32 33 33 33 34 34 35 37 39 40 40 39 36 35 37 34 32 31 32 33 34 34 36 34 33 30 29 31 31 30 30 32 33 32 30 28 25 25 26 25 25
35 34 32 33 33 32 33 33 33 36 38 41 42 38 35 33 35 33 33 32 31 32 34 34 36 36 35 34 30 30 30 32 32 32 31 30 29 28 25 23 21 25 24 22
34 32 32 33 33 32 32 33 33 36 37 34 38 34 32 34 33 31 33 31 33 33 34 35 36 35 34 33 33 33 33 33 32 31 29 27 25 25 22 19 16 16 19 21

GFSNW_sfc_dewp_045.txt.gz
Dewpoint
45 46 48 49 50 51 51 48 41 49 52 43 42 39 38 40 37 38 38 33 32 26 26 26 21 22 23 24 30 28 35 35 34 34 34 31 24 27 32 27 22 27 26 23
45 45 47 48 49 50 48 45 44 50 49 33 37 38 38 38 37 36 37 32 33 33 28 28 27 27 40 38 31 31 34 29 29 29 30 31 26 26 24 28 33 26 23 23
45 46 46 48 49 50 49 46 40 47 47 32 32 36 34 35 38 37 36 35 33 33 29 29 30 37 41 41 37 40 38 32 28 24 22 25 27 27 26 26 27 26 26 26
45 45 45 48 48 49 49 46 38 44 41 40 34 35 34 34 35 37 38 36 32 31 29 29 29 38 39 39 40 37 34 28 29 25 27 27 26 27 26 24 28 26 27 26
44 44 45 46 47 49 46 44 42 46 43 42 40 35 33 34 34 35 35 34 33 31 29 30 29 35 37 35 38 34 35 31 30 30 31 27 26 26 25 24 23 24 24 24
44 44 45 46 47 47 44 47 47 44 42 41 40 36 34 33 37 38 36 34 35 32 33 33 40 34 38 37 37 35 36 33 31 28 27 25 22 25 24 25 25 24 22 25
42 42 44 46 47 46 47 45 47 45 38 42 39 35 33 36 38 38 36 35 36 38 43 42 42 40 40 41 40 39 37 35 33 28 26 15 26 23 18 20 22 22 21 22
43 45 47 46 47 47 46 47 48 47 35 40 39 34 34 37 39 39 40 44 43 44 43 41 36 36 32 35 38 38 41 36 31 24 25 27 25 24 26 23 24 27 27 27
44 45 47 47 47 48 45 44 47 44 44 40 39 33 34 38 40 42 46 49 48 45 45 38 31 31 32 32 30 37 37 38 29 29 24 17 29 25 28 26 26 32 32 32
44 44 46 47 47 48 45 43 46 44 43 46 37 33 37 43 45 43 45 48 47 48 35 35 30 30 34 31 30 29 30 30 27 25 24 30 32 28 31 20 27 35 34 35
45 45 46 47 47 47 45 43 48 45 44 46 47 40 41 46 45 40 46 45 46 44 37 36 32 32 32 33 37 34 30 31 26 31 30 26 29 28 27 36 35 36 36 37
46 46 46 47 47 47 46 43 47 51 46 47 51 51 51 47 47 47 47 47 46 46 42 40 38 37 35 32 28 37 32 37 34 33 33 38 33 38 40 40 38 38 39 41
46 46 46 46 47 47 46 45 48 49 46 44 46 49 51 52 50 50 45 47 49 47 50 45 41 35 36 29 32 33 35 35 35 30 34 32 40 41 41 42 41 39 38 38
45 45 46 46 46 47 47 46 49 50 45 35 46 53 51 53 55 54 55 53 52 52 50 40 37 36 42 34 35 35 36 33 33 31 38 40 38 40 40 39 39 35 35 35
45 46 46 46 46 47 48 49 49 51 45 43 47 49 49 52 54 52 52 52 49 47 39 36 38 42 39 38 36 34 36 35 31 33 40 38 37 37 37 36 36 36 36 36
45 46 46 46 48 49 49 45 48 50 52 48 40 49 49 49 50 51 51 50 49 49 43 38 42 43 39 33 30 38 39 40 41 40 39 37 36 37 37 36 36 36 36 35
45 46 47 48 49 50 46 47 51 50 51 46 39 40 47 50 50 49 49 50 48 48 44 40 40 41 42 35 32 37 38 38 39 39 37 36 37 35 36 35 35 35 34 33
47 48 48 48 49 50 48 51 50 49 52 46 38 37 42 48 44 40 47 45 45 43 42 41 36 39 34 32 37 37 37 36 36 36 38 36 35 35 34 33 33 33 33 33
48 48 49 49 49 49 49 47 46 51 49 38 35 36 36 45 43 42 42 43 38 44 36 39 37 35 34 36 36 37 37 36 35 35 35 34 34 33 33 33 33 33 32 31
48 51 50 41 48 47 48 48 43 43 43 40 36 41 37 43 38 36 37 36 35 34 36 40 35 33 35 36 37 37 37 36 35 34 33 33 33 32 32 33 32 30 30 30
49 47 43 48 47 48 41 34 34 37 34 36 38 40 39 43 35 35 36 34 33 29 32 32 31 32 34 36 36 36 38 36 36 35 35 34 34 33 32 31 31 31 30 29
49 48 49 48 45 39 33 33 35 33 32 36 36 38 40 38 42 35 36 33 30 27 36 33 29 32 34 35 35 36 36 35 34 34 33 33 33 31 31 31 31 29 28 27
47 42 38 40 35 31 29 26 32 33 34 35 35 34 36 37 37 35 34 32 27 34 32 29 31 34 34 34 34 33 33 33 31 31 32 32 31 31 31 30 30 28 26 26
38 35 32 33 32 31 30 32 33 33 33 35 36 35 34 34 34 33 31 33 32 29 27 26 32 34 34 33 32 32 31 30 30 30 30 29 29 29 27 25 24 24 24 24
33 33 29 29 31 32 32 33 33 33 35 36 36 35 36 33 33 33 32 30 27 27 26 31 34 35 34 32 29 29 29 30 31 32 30 29 27 25 24 26 24 24 20 17
33 32 31 32 32 32 32 32 32 35 34 35 34 33 32 32 32 30 30 25 24 29 31 34 35 35 32 30 29 30 31 31 31 31 30 29 26 23 22 22 23 17 15 11
32 30 32 32 32 30 31 32 33 35 34 33 33 31 29 32 30 28 30 27 30 32 33 35 35 34 30 32 31 32 32 31 30 30 27 25 24 24 21 16 17 21 18 12

GFSNW_sfc_dewp_048.txt.gz
Dewpoint
44 45 45 47 48 49 49 44 38 49 52 41 40 38 37 38 37 39 39 40 37 29 28 26 24 23 22 29 34 30 34 35 31 28 33 34 33 31 31 26 20 26 25 20
43 45 45 47 47 48 45 39 41 50 48 36 35 38 37 38 36 38 37 37 37 31 27 25 27 26 37 40 32 31 34 32 29 29 29 33 32 30 28 32 29 25 22 23
44 45 44 46 46 48 45 41 37 45 47 41 33 34 36 37 37 35 36 37 39 37 30 29 27 34 40 41 37 41 37 31 29 26 24 26 26 27 25 26 26 25 25 24
43 45 45 46 46 48 45 42 36 40 38 40 36 33 35 36 34 35 38 36 36 36 29 28 30 38 37 39 38 37 33 27 28 26 27 28 27 26 26 24 27 24 25 26
43 44 45 45 46 48 43 39 39 42 40 38 38 34 32 33 32 33 31 36 37 37 31 29 28 36 35 32 36 32 34 27 28 28 29 26 25 24 24 25 24 25 25 25
42 44 43 46 45 47 42 42 45 42 37 38 37 35 32 32 32 33 30 35 36 37 35 32 32 37 38 36 33 33 34 33 29 26 26 26 24 26 24 24 25 25 22 25
41 42 44 46 46 48 45 40 45 44 36 39 37 36 35 33 32 30 36 31 34 37 42 41 39 38 40 40 39 38 35 33 29 26 24 18 28 28 26 25 25 23 23 25
40 42 44 45 45 46 45 46 45 44 35 39 39 38 35 35 34 36 33 41 41 43 42 38 34 33 33 35 36 38 38 34 29 23 24 26 26 20 22 24 26 29 29 30
43 44 44 44 44 45 45 45 47 43 41 37 41 40 37 34 35 35 42 48 48 47 42 34 29 29 33 32 33 37 37 35 31 28 21 18 27 26 27 29 26 32 33 35
43 43 43 44 44 44 45 45 47 44 40 44 43 40 38 36 38 38 44 45 43 46 34 32 29 29 34 30 29 26 30 30 26 23 21 25 31 28 29 18 23 34 35 35
43 43 44 44 44 47 45 43 47 43 40 43 47 46 37 36 39 38 43 43 43 40 34 35 33 28 32 32 33 30 28 28 25 28 22 21 35 29 25 30 36 36 36 36
43 44 45 46 46 47 44 41 47 49 44 44 47 47 45 46 40 46 45 42 44 45 41 38 37 35 32 31 30 37 30 30 30 31 30 36 38 37 38 38 38 39 40 41
44 45 46 47 46 47 44 43 45 45 41 43 45 44 50 51 50 51 44 45 48 48 49 44 41 33 35 30 30 33 35 39 35 32 37 39 40 41 41 39 36 36 37 37
43 45 46 46 46 47 45 42 46 45 45 37 41 51 51 53 53 51 49 46 49 50 48 40 38 35 39 32 35 33 35 34 34 38 38 38 38 38 37 36 37 36 36 36
45 46 46 46 47 47 45 45 46 48 46 39 40 49 52 54 54 51 54 49 48 44 38 36 38 40 39 36 35 32 35 33 31 32 39 37 36 37 37 36 36 36 35 34
45 46 46 46 46 46 45 40 45 48 50 43 37 48 50 53 53 52 52 52 50 48 42 39 42 43 36 32 29 37 39 40 40 39 38 37 37 37 37 36 35 35 34 33
45 46 46 46 46 45 42 39 47 48 49 42 37 40 49 52 51 48 50 50 47 48 44 39 39 41 40 32 31 38 39 37 37 37 36 35 36 35 35 35 34 33 32 32
45 45 46 46 46 46 44 48 50 50 46 44 37 38 41 49 43 42 47 44 44 44 42 39 34 38 32 31 37 37 37 37 37 37 37 36 35 33 33 33 33 32 32 32
45 45 46 48 46 44 44 47 49 50 47 40 35 36 35 44 41 40 40 41 37 42 36 37 37 34 30 35 36 35 36 36 35 35 34 34 33 32 33 33 32 31 29 28
46 47 46 39 45 49 49 47 45 44 42 40 35 39 37 42 36 36 36 36 35 34 36 39 33 32 35 36 37 36 36 35 35 33 32 32 32 32 32 32 31 29 28 29
47 45 42 48 48 47 44 37 35 36 33 35 38 39 38 42 35 34 34 34 31 31 34 33 33 31 34 36 37 37 36 35 35 34 34 33 33 33 31 30 30 29 29 28
49 48 49 47 43 36 33 32 32 33 32 35 36 37 40 38 40 34 35 32 29 28 36 34 29 33 36 38 37 37 36 35 34 34 34 33 32 31 30 29 28 28 28 26
46 41 36 38 33 31 23 25 30 31 33 35 34 34 35 37 37 34 34 27 27 33 30 25 30 34 35 35 35 34 34 33 33 32 32 32 32 31 29 26 26 26 25 22
37 31 30 31 30 29 30 31 32 32 32 34 34 34 35 33 34 33 31 33 33 24 24 25 32 34 33 33 32 31 31 31 31 30 30 29 28 27 27 26 24 23 20 17
31 32 28 28 31 32 32 32 33 33 35 34 34 34 35 33 32 32 31 29 27 24 24 31 34 34 32 31 30 30 29 30 30 29 28 26 25 23 23 23 22 22 21 18
31 31 31 32 32 31 31 32 32 35 33 34 33 32 30 31 31 29 28 24 26 29 31 33 35 32 30 30 31 32 33 30 29 28 27 25 23 23 22 22 19 18 18 16
30 29 32 32 31 30 31 32 32 35 33 33 31 30 29 31 29 28 30 27 29 31 33 34 32 30 31 33 32 32 31 30 30 29 26 24 21 21 22 19 18 18 18 16